Torna al catalogo

STARLINK-3339

AttivoComunicazioniVLEO
NORAD 50820·PAYLOAD·🇺🇸 United States

Lanciato Jan 6, 2022 da Cape Canaveral Space Force Station

Loading…

Prossimi Passaggi (prossime 24 ore)

TLE

AggiornatoSource: CelesTrak SupGP

Epoca: Sep 15, 2026, 01:47 UTC

1 50820C 22001T   26258.07479167 -.00023911  00000+0 -76896-3 0  2588
2 50820  53.1593  29.1555 0001104  86.8289 354.3948 15.31711714    15

Traccia STARLINK-3339 in tempo reale con AllMySat

Download on the App Store